Lexington Weather

Lexington, Massachusetts, USA

38°F
1/28/2023 10:24pm 
  • Lexington Conditions: Clear
  • Temperature: 37.9°F / 3.3°CColder 0.9°F than last hour.
  • Dew Point: 28.0°FIncreased 0.7°Fsince last hour.
  • Relative Humidity: 67%Increased 4.0% since last hour.
  • Wind: Calm, 10-min avg: Calm, gust: None
  • Barometer: 30.26 in Steady
  • Visibility: 10 miles
  • Rain Today: 0.00 in
  •   

Regional Weather Roundup
for Boston, MA

        
000
ASUS41 KBOX 221310
RWRBOX

REGIONAL WEATHER ROUNDUP
NATIONAL WEATHER SERVICE BOSTON/NORTON MA
800 AM EST SUN JAN 22 2023

NOTE:  "FAIR" INDICATES FEW OR NO CLOUDS BELOW 12,000 FEET WITH NO 
SIGNIFICANT WEATHER AND/OR OBSTRUCTIONS TO VISIBILITY.

MAZALL-221400-
EASTERN MASSACHUSETTS
  
CITY           SKY/WX    TMP DP  RH WIND       PRES   REMARKS
BOSTON         CLOUDY    30  22  72 SW12      30.23R WCI  20          
BEVERLY        CLOUDY    28  21  75 S7        30.21R WCI  21          
LAWRENCE       CLOUDY    28  22  78 S6        30.22R WCI  22          
BEDFORD        CLOUDY    30  23  75 S5        30.20R WCI  25          
NORWOOD        CLOUDY    32  22  66 S7        30.23R WCI  26          
MARSHFIELD     CLOUDY    30  23  74 CALM      30.23R                  
PLYMOUTH       CLOUDY    31  24  75 SW6       30.22R WCI  25          
TAUNTON          N/A    N/A N/A N/A MISG      30.22R                  
NEW BEDFORD    CLOUDY    32  25  75 NW5       30.22S WCI  27          
$$

MAZALL-221400-
CAPE COD AND THE ISLANDS
  
CITY           SKY/WX    TMP DP  RH WIND       PRES   REMARKS
FALMOUTH       CLOUDY    30  25  80 CALM      30.24R                  
HYANNIS        CLOUDY    30  25  81 CALM      30.22R                  
CHATHAM        CLOUDY    32  24  72 CALM      30.25R                  
PROVINCETOWN   CLOUDY    32  25  75 SW6       30.24R WCI  26          
NANTUCKET      CLOUDY    33  25  72 CALM      30.24R                  
MARTHAS VNYRD  CLOUDY    35  26  69 SW6       30.23R WCI  30          
$$
 
MAZALL-221400-
CENTRAL AND WESTERN MASSACHUSETTS
  
CITY           SKY/WX    TMP DP  RH WIND       PRES   REMARKS
WORCESTER      CLOUDY    27  22  81 SW7       30.14S WCI  19          
FITCHBURG      CLOUDY    28  22  78 SW5       30.20R WCI  23          
ORANGE         CLOUDY    28  23  81 S7        30.18R WCI  21          
SPRINGFIELD    CLOUDY    30  23  75 CALM      30.16F                  
WESTFIELD      CLOUDY    30  24  78 CALM      30.18S                  
NORTH ADAMS    CLOUDY    30  22  72 CALM      30.17R                  
PITTSFIELD     CLOUDY    27  21  78 CALM      30.11S                  
$$
 
RIZALL-221400-
RHODE ISLAND
  
CITY           SKY/WX    TMP DP  RH WIND       PRES   REMARKS
PROVIDENCE     CLOUDY    30  24  78 CALM      30.22S                  
NEWPORT        CLOUDY    31  23  72 N5        30.20F WCI  26          
BLOCK ISLAND   CLOUDY    32  26  78 CALM      30.22F                  
SMITHFIELD     CLOUDY    28  24  85 CALM      30.20S                  
WESTERLY       CLOUDY    31  25  78 SE3       30.22F                  
$$
 
CTZALL-221400-
CONNECTICUT
  
CITY           SKY/WX    TMP DP  RH WIND       PRES   REMARKS
BRADLEY INTL   CLOUDY    32  24  72 S5        30.19S WCI  27          
HARTFORD       CLOUDY    33  25  72 S5        30.20F WCI  29          
BRIDGEPORT     CLOUDY    37  26  64 SW7       30.20S WCI  32          
DANBURY        CLOUDY    34  23  64 CALM      30.18F                  
GROTON         CLOUDY    34  25  69 NE3       30.21F                  
NEW HAVEN      CLOUDY    36  28  73 CALM      30.20S                  
CHESTER        CLOUDY    32  27  80 CALM      30.19S                  
MERIDEN        CLOUDY    32  26  78 CALM      30.20F                  
WILLIMANTIC    CLOUDY    30  25  81 CALM      30.20S                  
OXFORD         CLOUDY    31  25  78 CALM      30.17S                  
$$

MEZ002-015-021-024-NHZ003-005-008-011-012-014-VTZ005-008-221400-
NORTHERN NEW ENGLAND
  
CITY           SKY/WX    TMP DP  RH WIND       PRES   REMARKS
PORTLAND ME    PTCLDY    13  11  92 CALM      30.19S                  
BANGOR ME      MOCLDY     1  -2  87 CALM      30.19S                  
CONCORD NH     CLOUDY    18  15  88 MISG      30.19R                  
MANCHESTER NH  CLOUDY    27  22  81 S5        30.18R WCI  22          
NASHUA NH      CLOUDY    27  27 100 CALM      30.20R                  
PORTSMOUTH NH  MOCLDY    19  16  87 SW5       30.21R WCI  13          
JAFFREY NH     CLOUDY    27  22  81 SW6       30.14R WCI  20          
KEENE NH       CLOUDY    27  25  92 S3        30.18R                  
BURLINGTON VT  CLOUDY    29  23  78 S6        30.11S WCI  23          
MT. WASHINGTON MOCLDY    19  -8  30 SW26        N/A  WCI   1          
$$

NYZ052-076-221400-
EASTERN NEW YORK
  
CITY           SKY/WX    TMP DP  RH WIND       PRES   REMARKS
ALBANY         CLOUDY    31  24  75 CALM      30.17R                  
NEW YORK CITY  CLOUDY    38  22  52 S7        30.19F                  
$$
 
ANZALL-221400-
MARINE OBSERVATIONS
  
STATION/POSITION TIME  TEMP    WIND        PRES    VSBY  WAVE
                       AIR SEA DIR/SP/G                  HT/PER
                 (UTC) (F)     (DEG/KT/KT) (MB)    (MI)  (FT/S)
BOSTON BUOY      1230                      1024.4R
BUZZARDS BAY     1200   33     280/  7/  8 1024.2R
NANTUCKET SOUND  1250   36 42  240/ 10/ 16 1023.7S         1
MASS BAY-STELLWA 1104   30 41  260/ 10/ 14 1023.4S  1 7/8  4/11
ISLE OF SHOALS   1200   28     260/ 13/ 15 1021.7F
S OF BLOCK IS    1256      44                N/A           2/11
$$

......................KEY.........................
  SKY/WX - SKY CONDITION/PRESENT WEATHER
  TMP    - TEMPERATURE IN FAHRENHEIT
  DWPT   - DEWPOINT IN FAHRENHEIT
  RH     - RELATIVE HUMIDITY IN PERCENT
  WIND   - DIRECTION AND SPEED IN MPH
  PRES   - MEAN SEA LEVEL PRESSURE IN INCHES OF HG
  WCI    - WIND CHILL INDEX
  VSB    - VISIBILITY IN MILES
  HX     - HEAT INDEX
  TC     - TEMPERATURE IN CELSIUS
  VRB    - VARIABLE WIND DIRECTION
  N/A    - NOT AVAILABLE
  
      

Other recent Regional Weather Roundups

Sat Jan 28, 10:10pm EST

Sat Jan 28, 9:10pm EST

Sat Jan 28, 8:10pm EST

Sat Jan 28, 7:10pm EST

Sat Jan 28, 6:10pm EST

Sat Jan 28, 5:10pm EST

Sat Jan 28, 4:10pm EST

Sat Jan 28, 3:10pm EST

Sat Jan 28, 2:10pm EST

Sat Jan 28, 1:10pm EST

Sat Jan 28, 12:10pm EST

Sat Jan 28, 11:10am EST

Sat Jan 28, 10:10am EST

Sat Jan 28, 9:10am EST

Sat Jan 28, 8:10am EST

Sat Jan 28, 7:10am EST

Sat Jan 28, 6:10am EST

Sat Jan 28, 5:10am EST

Sat Jan 28, 4:10am EST

Sat Jan 28, 3:10am EST

Sat Jan 28, 2:10am EST

Sat Jan 28, 1:10am EST

Sat Jan 28, 12:10am EST

Fri Jan 27, 11:10pm EST

Fri Jan 27, 10:10pm EST

Fri Jan 27, 9:10pm EST

Fri Jan 27, 8:10pm EST

Fri Jan 27, 7:10pm EST

Fri Jan 27, 6:10pm EST

Fri Jan 27, 5:10pm EST

Fri Jan 27, 4:10pm EST

Fri Jan 27, 3:10pm EST

Fri Jan 27, 2:10pm EST

Fri Jan 27, 1:10pm EST

Fri Jan 27, 12:10pm EST

Fri Jan 27, 11:10am EST

Fri Jan 27, 10:10am EST

Fri Jan 27, 9:10am EST

Fri Jan 27, 8:10am EST

Fri Jan 27, 7:10am EST

Fri Jan 27, 6:10am EST

Fri Jan 27, 5:10am EST

Fri Jan 27, 4:10am EST

Fri Jan 27, 3:10am EST

Fri Jan 27, 2:10am EST

Fri Jan 27, 1:10am EST

Fri Jan 27, 12:10am EST

Thu Jan 26, 11:10pm EST

Thu Jan 26, 10:10pm EST

Thu Jan 26, 9:10pm EST

Thu Jan 26, 8:10pm EST

Thu Jan 26, 7:10pm EST

Thu Jan 26, 6:10pm EST

Thu Jan 26, 5:10pm EST

Thu Jan 26, 4:10pm EST

Thu Jan 26, 3:10pm EST

Thu Jan 26, 2:10pm EST

Thu Jan 26, 1:10pm EST

Thu Jan 26, 12:10pm EST

Thu Jan 26, 11:10am EST

Thu Jan 26, 10:10am EST

Thu Jan 26, 9:10am EST

Thu Jan 26, 8:10am EST

Thu Jan 26, 7:10am EST

Thu Jan 26, 6:10am EST

Thu Jan 26, 5:10am EST

Thu Jan 26, 4:10am EST

Thu Jan 26, 3:10am EST

Thu Jan 26, 2:10am EST

Thu Jan 26, 1:10am EST

Thu Jan 26, 12:10am EST

Wed Jan 25, 11:10pm EST

Wed Jan 25, 10:10pm EST

Wed Jan 25, 9:10pm EST

Wed Jan 25, 8:10pm EST

Wed Jan 25, 7:10pm EST

Wed Jan 25, 6:10pm EST

Wed Jan 25, 5:10pm EST

Wed Jan 25, 4:10pm EST

Wed Jan 25, 3:10pm EST

Wed Jan 25, 2:10pm EST

Wed Jan 25, 1:10pm EST

Wed Jan 25, 12:10pm EST

Wed Jan 25, 11:10am EST

Wed Jan 25, 10:10am EST

Wed Jan 25, 9:10am EST

Wed Jan 25, 8:10am EST

Wed Jan 25, 7:10am EST

Wed Jan 25, 6:10am EST

Wed Jan 25, 5:10am EST

Wed Jan 25, 4:10am EST

Wed Jan 25, 3:10am EST

Wed Jan 25, 2:10am EST

Wed Jan 25, 1:10am EST

Wed Jan 25, 12:10am EST

Tue Jan 24, 11:10pm EST

Tue Jan 24, 10:10pm EST

Tue Jan 24, 9:10pm EST

Tue Jan 24, 8:10pm EST

Tue Jan 24, 7:10pm EST

Tue Jan 24, 6:10pm EST

Tue Jan 24, 5:10pm EST

Tue Jan 24, 4:10pm EST

Tue Jan 24, 3:10pm EST

Tue Jan 24, 2:10pm EST

Tue Jan 24, 1:10pm EST

Tue Jan 24, 12:10pm EST

Tue Jan 24, 11:10am EST

Tue Jan 24, 10:10am EST

Tue Jan 24, 9:10am EST

Tue Jan 24, 8:10am EST

Tue Jan 24, 7:10am EST

Tue Jan 24, 6:10am EST

Tue Jan 24, 5:10am EST

Tue Jan 24, 4:10am EST

Tue Jan 24, 3:10am EST

Tue Jan 24, 2:10am EST

Tue Jan 24, 1:10am EST

Tue Jan 24, 12:10am EST

Mon Jan 23, 11:10pm EST

Mon Jan 23, 10:10pm EST

Mon Jan 23, 9:10pm EST

Mon Jan 23, 8:10pm EST

Mon Jan 23, 7:10pm EST

Mon Jan 23, 6:10pm EST

Mon Jan 23, 5:10pm EST

Mon Jan 23, 4:10pm EST

Mon Jan 23, 3:10pm EST

Mon Jan 23, 2:10pm EST

Mon Jan 23, 1:10pm EST

Mon Jan 23, 12:10pm EST

Mon Jan 23, 11:10am EST

Mon Jan 23, 10:10am EST

Mon Jan 23, 9:10am EST

Mon Jan 23, 8:10am EST

Mon Jan 23, 7:10am EST

Mon Jan 23, 6:10am EST

Mon Jan 23, 5:10am EST

Mon Jan 23, 4:10am EST

Mon Jan 23, 3:10am EST

Mon Jan 23, 2:10am EST

Mon Jan 23, 1:10am EST

Mon Jan 23, 12:10am EST

Sun Jan 22, 11:10pm EST

Sun Jan 22, 10:10pm EST

Sun Jan 22, 9:10pm EST

Sun Jan 22, 8:10pm EST

Sun Jan 22, 7:10pm EST

Sun Jan 22, 6:10pm EST

Sun Jan 22, 5:10pm EST

Sun Jan 22, 4:10pm EST

Sun Jan 22, 3:10pm EST

Sun Jan 22, 2:10pm EST

Sun Jan 22, 1:10pm EST

Sun Jan 22, 12:10pm EST

Sun Jan 22, 11:10am EST

Sun Jan 22, 10:10am EST

Sun Jan 22, 9:10am EST

Sun Jan 22, 7:10am EST

Sun Jan 22, 6:10am EST

Sun Jan 22, 5:10am EST

Sun Jan 22, 4:10am EST

Sun Jan 22, 3:10am EST

Sun Jan 22, 2:10am EST

Sun Jan 22, 1:10am EST

Sun Jan 22, 12:10am EST

Sat Jan 21, 11:10pm EST